Regional Weather Roundup
Issued by NWS

Home | Current Version | Previous Version | Text Only | Print | Product List | Glossary Off
Versions: 1 2 3 4 5 6 7 8 9 10 11 12 13 14 15 16 17 18 19 20 21 22 23 24 25 26 27 28 29 30 31 32 33 34 35 36 37 38 39 40 41 42 43 44 45 46 47 48 49 50

000
ASUS43 KMKX 210511
RWRWI

WISCONSIN REGIONAL WEATHER ROUNDUP
NATIONAL WEATHER SERVICE MILWAUKEE/SULLIVAN WI
1100 PM CST MON FEB 20 2017

NOTE: "FAIR" INDICATES FEW OR NO CLOUDS BELOW 12,000 FEET WITH NO
SIGNIFICANT WEATHER AND/OR OBSTRUCTIONS TO VISIBILITY.

WIZ001-002-006>008-014>016-023>028-210600-
NORTHWEST WISCONSIN

CITY           SKY/WX    TMP DP  RH WIND       PRES   REMARKS
SUPERIOR ARPT  CLOUDY    39  39 100 SW8       29.63R FOG     WCI  34
ASHLAND        CLOUDY    50  48  93 S10       29.60F
HAYWARD        LGT RAIN  51  49  92 SW13      29.63F FOG
SIREN          CLOUDY    48  46  92 W18G28    29.70R
CUMBERLAND     CLOUDY    46  46 100 W18G30    29.68R
RICE LAKE      CLOUDY    50  50  99 SW12G20   29.69S FOG
CHETEK         RAIN      51  51  99 W8        29.68F
LADYSMITH      RAIN      51  50  98 S9        29.69F
EAU CLAIRE     CLOUDY    53  51  93 SW14G23   29.71R
MENOMONIE      CLOUDY    51  51 100 SW13      29.72R
NEW RICHMOND   CLOUDY    44  44  98 W18G25    29.75R
OSCEOLA        NOT AVBL
$$

WIZ003>005-009-010-017-018-210600-
NORTH CENTRAL WISCONSIN

CITY           SKY/WX    TMP DP  RH WIND       PRES   REMARKS
MANITOWISH WTR FOG       44  44 100 S9        29.66F VSB 1/4
ARBOR VITAE    FOG       48  47  97 S9        29.67F VSB 1/2
WOODRUFF       FOG       48  47  97 S9        29.67F VSB 1/2
RHINELANDER    FOG       48  48 100 S9        29.70F VSB 1
EAGLE RIVER    CLOUDY    45  45 100 S7        29.68F FOG
LAND O LAKES   LGT RAIN  46  46 100 S8        29.69F
PHILLIPS       RAIN      48  48 100 S9G21     29.67S
TOMAHAWK       FOG       46  45  97 CALM      29.70F VSB 1/4
MEDFORD        FOG       47  47 100 S12G17    29.71S VSB<1/4
MERRILL        NOT AVBL
$$

WIZ029-030-035-036-043>047-210600-
CENTRAL WISCONSIN

CITY           SKY/WX    TMP DP  RH WIND       PRES   REMARKS
WAUSAU         FOG       47  47 100 S7        29.73F VSB 1/4
MOSINEE        SNOW      46  46 100 S9        29.75F VSB<1/4
MARSHFIELD     CLOUDY    52  51  97 SW15      29.74S FOG
STEVENS POINT  DRZL/FOG  49  49 100 S8        29.76F VSB 1/2
WAUPACA        LGT RAIN  52  51  96 S8        29.80F
WAUTOMA        LGT RAIN  53  52  96 S8        29.81F FOG
WISC RAPIDS    CLOUDY    55  55 100 S10       29.78F
CAMP DOUGLAS   CLOUDY    56  55  96 SW9       29.78S
$$

WIZ011>013-019>022-031-037>040-048>050-210600-
NORTHEAST WISCONSIN

CITY           SKY/WX    TMP DP  RH WIND       PRES   REMARKS
ANTIGO         FOG       40  40 100 S8        29.74F VSB<1/4 WCI  35
SHAWANO        DRIZZLE   49  47  93 S6        29.80F
OCONTO         CLOUDY    45  42  89 S12G18    29.82F
STURGEON BAY   LGT RAIN  44  40  85 S21G30    29.83F
GREEN BAY      LGT RAIN  50  47  89 S10       29.83R FOG
MANITOWOC      RAIN      46  41  82 MISG      29.87F
APPLETON       DRIZZLE   52  50  93 SW14G20   29.82S FOG
CLINTONVILLE   RAIN      48  46  93 S8        29.80S
OSHKOSH        LGT RAIN  53  50  89 S13       29.83F
$$

WIZ032>034-041-042-053>061-210600-
SOUTHWEST WISCONSIN

CITY           SKY/WX    TMP DP  RH WIND       PRES   REMARKS
LA CROSSE      CLOUDY    57  54  89 SW15      29.77F
SPARTA         CLOUDY    56  55  96 SW7       29.79F
VIROQUA        CLOUDY    55  55 100 SW14G22   29.81S
BOSCOBEL       CLOUDY    57  55  93 SW7       29.81F
PRAIRIE DU CHI LGT RAIN  55  54  97 S6        29.83R
PLATTEVILLE      N/A     53  53 100 S9        29.87S VSB 1/2
$$

WIZ056-057-062-063-064-067-068-210600-
SOUTH CENTRAL WISCONSIN

CITY           SKY/WX    TMP DP  RH WIND       PRES   REMARKS
REEDSBURG      DRIZZLE   55  55 100 S10       29.81F
BARABOO/DELLS  DRIZZLE   55  54  94 SW10      29.82F
LONE ROCK      LGT RAIN  56  54  93 S8        29.83F FOG
MINERAL POINT  LGT RAIN  55  55 100 S9        29.86S
MADISON        LGT RAIN  53  53 100 S9        29.85F FOG
MIDDLETON        N/A     58  58 100 SW8       29.85F
WATERTOWN      DRIZZLE   54  54  98 NW12      29.88R
MONROE         LGT RAIN  55  54  94 SW13      29.89R
JANESVILLE     DRIZZLE   59  50  72 S9        29.88F
$$

WIZ051-052-058>065-066-070>072-210600-
SOUTHEAST WISCONSIN

CITY           SKY/WX    TMP DP  RH WIND       PRES   REMARKS
MILWAUKEE      CLOUDY    56  42  59 S10       29.88F
WAUKESHA       CLOUDY    55  45  67 SW7       29.90R
MILWAUKEE/TIMM CLOUDY    55  41  58 SW9       29.89R
RACINE         CLOUDY    50  40  68 S13       29.90F
KENOSHA        CLOUDY    57  45  64 S8        29.89S
FOND DU LAC    LGT RAIN  52  48  86 S13       29.85R
SHEBOYGAN      LGT RAIN  47  40  76 S14       29.87S
WEST BEND      CLOUDY    54  45  71 S7        29.88R
JUNEAU         LGT RAIN  52  51  97 S8        29.87F
$$

LSZ147-162-210600-
LAKE SUPERIOR

STATION/POSITION TIME  TEMP    WIND        PRES    WAVE
                       AIR SEA DIR/SP/G            HT/PER
                 (UTC) (F)     (DEG/KT/KT) (MB)    (FT/S)
DEVILS ISLAND    0500   42     240/  1/  2 1001.8F
PORT WING        0430   36     180/  2/  2 1002.0F
SAXON HARBOR     0440   52     200/  7/ 14 1002.0F
$$

LMZ867-665-643>646-210600-
LAKE MICHIGAN

STATION/POSITION TIME  TEMP    WIND        PRES    WAVE
                       AIR SEA DIR/SP/G            HT/PER
                 (UTC) (F)     (DEG/KT/KT) (MB)    (FT/S)
CHAMBERS ISLAND  0440   46     160/ 10/ 24 1009.5S
NORTHPORT PIER   0440   42     150/ 14/ 21 1010.2F
SISTER BAY       0405   42     190/ 20/ 29   N/A
KEWAUNEE LAKESHO 0442   42     190/ 19/ 21 1010.9F
SHEBOYGAN LAKESH 0500   45     190/ 17/ 19 1012.0F
PORT WASHINGTON  0440   41     210/  3/  6 1012.9F
MILWAUKEE LAKESH 0450   43     160/ 12/ 13   N/A
KENOSHA   LAKESH 0500   43     170/ 17/ 19 1012.5
$$

TC  - TEMPERATURE IN CELSIUS
VSB - VISIBILITY IN STATUTE MILES
WCI - WIND CHILL INDEX
HX  - HEAT INDEX




USA.gov is the U.S. government's official web portal to all federal, state and local government web resources and services.